This is the latest recevied weather packets stored in our database for station/object N6WDO. If no packets are shown the sender has not sent any weather packets the latest 10 day(s).
| Time | Temp. | Humidity | Pressure | Rain* | Wind** | Luminosity | Snow |
|---|---|---|---|---|---|---|---|
| 1777653846 | 23.33° C | 45% | 1016.9 hPa | 0 mm | - | 476 W/m² | - |
| 1777653543 | 22.78° C | 44% | 1017 hPa | 0 mm | - | 464 W/m² | - |
| 1777653239 | 22.22° C | 48% | 1016.9 hPa | 0 mm | - | 449 W/m² | - |
| 1777652935 | 21.67° C | 47% | 1017.1 hPa | 0 mm | - | 436 W/m² | - |
| 1777652632 | 22.22° C | 46% | 1017.1 hPa | 0 mm | - | 423 W/m² | - |
| 1777652329 | 22.78° C | 47% | 1017.1 hPa | 0 mm | - | 409 W/m² | - |
| 1777652026 | 22.78° C | 44% | 1016.9 hPa | 0 mm | - | 393 W/m² | - |
| 1777651723 | 22.22° C | 45% | 1016.7 hPa | 0 mm | - | 383 W/m² | - |
| 1777651419 | 21.67° C | 47% | 1016.9 hPa | 0 mm | - | 370 W/m² | - |
| 1777651117 | 21.67° C | 49% | 1016.9 hPa | 0 mm | - | 355 W/m² | - |
| 1777650813 | 21.11° C | 50% | 1016.9 hPa | 0 mm | - | 339 W/m² | - |
| 1777650510 | 20.56° C | 50% | 1016.9 hPa | 0 mm | - | 374 W/m² | - |
| 1777650207 | 21.11° C | 49% | 1016.9 hPa | 0 mm | - | 303 W/m² | - |
| 1777649905 | 21.67° C | 48% | 1016.9 hPa | 0 mm | - | 296 W/m² | - |
| 1777649603 | 21.11° C | 49% | 1017.1 hPa | 0 mm | - | 280 W/m² | - |
| 1777649298 | 21.11° C | 59% | 1017 hPa | 0 mm | - | 267 W/m² | - |
| 1777648995 | 21.11° C | 59% | 1016.9 hPa | 0 mm | - | 253 W/m² | - |
| 1777648693 | 20.56° C | 60% | 1016.8 hPa | 0 mm | - | 237 W/m² | - |
| 1777648389 | 20.56° C | 61% | 1016.7 hPa | 0 mm | - | 223 W/m² | - |
| 1777648085 | 20° C | 62% | 1016.7 hPa | 0 mm | - | 207 W/m² | - |
| 1777647782 | 19.44° C | 65% | 1016.7 hPa | 0 mm | - | 194 W/m² | - |
| 1777647478 | 18.89° C | 67% | 1016.6 hPa | 0 mm | - | 180 W/m² | - |
| 1777647175 | 19.44° C | 65% | 1016.7 hPa | 0 mm | - | 166 W/m² | - |
| 1777646872 | 18.33° C | 69% | 1016.6 hPa | 0 mm | - | 148 W/m² | - |
| 1777646567 | 18.33° C | 66% | 1016.5 hPa | 0 mm | - | 139 W/m² | - |
* Rain latest hour (hover to see other rain measurements)
** Current wind speed in m/s (hover to see current wind gust speed)